TimeEDT,TemperatureF,Dew PointF,Humidity,Sea Level PressureIn,VisibilityMPH,Wind Direction,Wind SpeedMPH,Gust SpeedMPH,PrecipitationIn,Events,Conditions,WindDirDegrees,DateUTC
12:15 AM,37.4,28.4,70,30.22,10.0,NE,12.7,16.1,N/A,,Overcast,50,2014-03-19 04:15:00
12:35 AM,37.4,30.2,75,30.21,10.0,ENE,12.7,19.6,N/A,,Overcast,60,2014-03-19 04:35:00
12:55 AM,37.4,28.4,70,30.21,10.0,NE,12.7,19.6,N/A,,Overcast,50,2014-03-19 04:55:00
1:15 AM,37.4,30.2,75,30.21,10.0,NE,10.4,18.4,N/A,,Overcast,50,2014-03-19 05:15:00
1:35 AM,37.4,28.4,70,30.21,10.0,ENE,11.5,-,N/A,,Mostly Cloudy,60,2014-03-19 05:35:00
1:55 AM,37.4,30.2,75,30.21,10.0,NE,12.7,-,N/A,,Mostly Cloudy,50,2014-03-19 05:55:00
2:15 AM,37.4,30.2,75,30.21,10.0,NE,12.7,17.3,N/A,,Mostly Cloudy,50,2014-03-19 06:15:00
2:35 AM,37.4,30.2,75,30.21,10.0,NE,13.8,17.3,N/A,,Overcast,40,2014-03-19 06:35:00
2:55 AM,37.4,30.2,75,30.21,10.0,NE,11.5,17.3,N/A,,Overcast,50,2014-03-19 06:55:00
3:15 AM,37.4,30.2,75,30.21,10.0,NE,10.4,16.1,N/A,,Overcast,40,2014-03-19 07:15:00
3:35 AM,37.4,30.2,75,30.20,10.0,NE,12.7,16.1,N/A,,Overcast,50,2014-03-19 07:35:00
3:55 AM,37.4,30.2,75,30.21,10.0,NE,11.5,17.3,N/A,,Overcast,40,2014-03-19 07:55:00
4:15 AM,37.4,30.2,75,30.21,10.0,NE,11.5,16.1,N/A,,Overcast,40,2014-03-19 08:15:00
4:35 AM,37.4,30.2,75,30.21,10.0,NE,10.4,-,N/A,,Overcast,40,2014-03-19 08:35:00
4:55 AM,37.4,30.2,75,30.21,10.0,NE,10.4,-,N/A,,Overcast,40,2014-03-19 08:55:00
5:15 AM,37.4,30.2,75,30.22,10.0,NE,10.4,-,N/A,,Overcast,40,2014-03-19 09:15:00
5:35 AM,37.4,30.2,75,30.22,10.0,NE,11.5,-,N/A,,Overcast,40,2014-03-19 09:35:00
5:55 AM,37.4,30.2,75,30.22,10.0,NNE,12.7,-,N/A,,Overcast,30,2014-03-19 09:55:00
6:15 AM,37.4,30.2,75,30.23,10.0,NNE,11.5,-,N/A,,Overcast,30,2014-03-19 10:15:00
6:35 AM,37.4,30.2,75,30.23,10.0,NE,12.7,19.6,N/A,,Overcast,40,2014-03-19 10:35:00
6:55 AM,37.4,30.2,75,30.24,10.0,NE,12.7,19.6,N/A,,Overcast,50,2014-03-19 10:55:00
7:15 AM,37.4,32.0,81,30.24,10.0,ENE,15.0,18.4,N/A,,Overcast,60,2014-03-19 11:15:00
7:35 AM,37.4,32.0,81,30.22,10.0,ENE,11.5,20.7,N/A,,Overcast,60,2014-03-19 11:35:00
7:55 AM,39.2,32.0,75,30.22,10.0,ENE,16.1,23.0,N/A,,Overcast,60,2014-03-19 11:55:00
8:15 AM,39.2,33.8,81,30.22,10.0,ENE,13.8,19.6,N/A,,Overcast,60,2014-03-19 12:15:00
8:35 AM,39.2,33.8,81,30.22,10.0,ENE,15.0,-,N/A,,Overcast,60,2014-03-19 12:35:00
8:55 AM,39.2,33.8,81,30.22,10.0,ENE,13.8,23.0,N/A,,Overcast,60,2014-03-19 12:55:00
9:15 AM,39.2,33.8,81,30.21,10.0,ENE,12.7,19.6,N/A,,Overcast,60,2014-03-19 13:15:00
9:35 AM,41.0,33.8,76,30.20,10.0,ENE,17.3,23.0,N/A,,Overcast,70,2014-03-19 13:35:00
9:55 AM,42.8,35.6,76,30.19,10.0,ENE,12.7,-,N/A,,Overcast,60,2014-03-19 13:55:00
10:15 AM,42.8,35.6,76,30.19,10.0,ENE,15.0,21.9,N/A,,Overcast,60,2014-03-19 14:15:00
10:35 AM,42.8,35.6,76,30.19,10.0,ENE,12.7,19.6,N/A,,Overcast,60,2014-03-19 14:35:00
10:55 AM,44.6,35.6,71,30.18,10.0,ENE,11.5,19.6,N/A,,Overcast,60,2014-03-19 14:55:00
11:15 AM,44.6,37.4,76,30.17,10.0,ENE,12.7,20.7,N/A,,Overcast,70,2014-03-19 15:15:00
11:35 AM,44.6,37.4,76,30.17,10.0,ENE,16.1,21.9,N/A,,Overcast,70,2014-03-19 15:35:00
11:55 AM,44.6,37.4,76,30.17,10.0,ENE,13.8,20.7,N/A,,Overcast,70,2014-03-19 15:55:00
12:15 PM,44.6,37.4,76,30.16,10.0,ENE,12.7,20.7,N/A,,Overcast,70,2014-03-19 16:15:00
12:35 PM,44.6,37.4,76,30.14,10.0,ENE,15.0,20.7,N/A,,Overcast,70,2014-03-19 16:35:00
12:55 PM,44.6,37.4,76,30.13,10.0,ENE,16.1,21.9,N/A,,Overcast,70,2014-03-19 16:55:00
1:15 PM,44.6,37.4,76,30.12,10.0,East,13.8,-,N/A,,Overcast,80,2014-03-19 17:15:00
1:35 PM,44.6,37.4,76,30.11,10.0,ENE,11.5,19.6,N/A,,Overcast,70,2014-03-19 17:35:00
1:55 PM,44.6,37.4,76,30.10,10.0,East,12.7,-,N/A,,Overcast,80,2014-03-19 17:55:00
2:15 PM,46.4,39.2,76,30.09,10.0,East,11.5,16.1,N/A,,Overcast,80,2014-03-19 18:15:00
2:35 PM,48.2,39.2,71,30.07,10.0,East,11.5,19.6,N/A,,Overcast,80,2014-03-19 18:35:00
2:55 PM,48.2,41.0,76,30.06,10.0,East,12.7,19.6,N/A,,Overcast,100,2014-03-19 18:55:00
3:15 PM,46.4,39.2,76,30.05,10.0,East,11.5,-,N/A,,Overcast,100,2014-03-19 19:15:00
3:35 PM,48.2,41.0,76,30.03,10.0,East,10.4,17.3,N/A,,Overcast,100,2014-03-19 19:35:00
3:55 PM,50.0,42.8,76,30.01,-9999.0,East,17.3,-,N/A,,Unknown,100,2014-03-19 19:55:00
4:15 PM,48.2,42.8,82,30.01,10.0,East,10.4,-,N/A,,Overcast,100,2014-03-19 20:15:00
4:35 PM,48.2,42.8,82,30.00,10.0,ESE,10.4,16.1,N/A,,Overcast,110,2014-03-19 20:35:00
4:55 PM,48.2,42.8,82,30.00,9.0,ESE,10.4,18.4,N/A,,Overcast,110,2014-03-19 20:55:00
5:15 PM,48.2,42.8,82,29.99,9.0,ESE,13.8,-,N/A,,Overcast,110,2014-03-19 21:15:00
5:35 PM,48.2,42.8,82,29.98,9.0,ESE,13.8,18.4,N/A,,Overcast,110,2014-03-19 21:35:00
5:55 PM,48.2,42.8,82,29.98,8.0,ESE,13.8,17.3,N/A,,Overcast,120,2014-03-19 21:55:00
6:15 PM,46.4,42.8,87,29.97,9.0,ESE,13.8,-,N/A,,Overcast,120,2014-03-19 22:15:00
6:35 PM,48.2,42.8,82,29.97,10.0,SE,11.5,-,N/A,,Overcast,130,2014-03-19 22:35:00
6:55 PM,46.4,42.8,87,29.95,7.0,SE,11.5,16.1,N/A,,Overcast,140,2014-03-19 22:55:00
7:15 PM,48.2,42.8,82,29.94,3.0,SE,9.2,-,N/A,,Overcast,130,2014-03-19 23:15:00
7:35 PM,48.2,44.6,87,29.92,8.0,SSE,12.7,-,N/A,,Overcast,150,2014-03-19 23:35:00
7:55 PM,48.2,44.6,87,29.90,8.0,SSE,15.0,-,N/A,,Overcast,150,2014-03-19 23:55:00
8:15 PM,50.0,46.4,87,29.90,10.0,SSE,17.3,21.9,N/A,,Overcast,160,2014-03-20 00:15:00
8:35 PM,50.0,46.4,87,29.89,7.0,SSE,20.7,25.3,0.01,,Overcast,160,2014-03-20 00:35:00
8:55 PM,48.2,44.6,87,29.88,7.0,South,13.8,-,0.02,,Overcast,170,2014-03-20 00:55:00
9:15 PM,48.2,42.8,82,29.89,5.0,SSW,18.4,23.0,0.06,,Overcast,200,2014-03-20 01:15:00
9:35 PM,50.0,46.4,87,29.89,5.0,SSW,11.5,18.4,0.15,,Overcast,210,2014-03-20 01:35:00
9:55 PM,48.2,44.6,87,29.89,3.0,West,9.2,21.9,0.21,,Overcast,280,2014-03-20 01:55:00
10:15 PM,44.6,41.0,87,29.90,2.5,West,12.7,-,0.03,,Overcast,280,2014-03-20 02:15:00
10:35 PM,42.8,39.2,87,29.89,2.5,West,10.4,16.1,0.07,,Overcast,280,2014-03-20 02:35:00
10:55 PM,42.8,39.2,87,29.88,1.8,West,9.2,-,0.07,,Overcast,280,2014-03-20 02:55:00
11:15 PM,42.8,39.2,87,29.88,2.5,West,8.1,-,0.05,,Overcast,270,2014-03-20 03:15:00
11:35 PM,42.8,39.2,87,29.87,2.5,West,6.9,-,0.06,,Overcast,270,2014-03-20 03:35:00
11:55 PM,42.8,39.2,87,29.86,1.8,West,5.8,-,0.06,,Overcast,270,2014-03-20 03:55:00